This is the latest recevied weather packets stored in our database for station/object N6GPM. If no packets are shown the sender has not sent any weather packets the latest 10 day(s).
| Time | Temp. | Humidity | Pressure | Rain* | Wind** | Luminosity | Snow |
|---|---|---|---|---|---|---|---|
| 1777571756 | 18.33° C | 60% | 1015.9 hPa | 0 mm | - | 884 W/m² | - |
| 1777571454 | 18.33° C | 62% | 1015.9 hPa | 0 mm | - | 863 W/m² | - |
| 1777571150 | 18.33° C | 60% | 1016.1 hPa | 0 mm | - | 832 W/m² | - |
| 1777570845 | 18.89° C | 60% | 1016 hPa | 0 mm | - | 832 W/m² | - |
| 1777570542 | 17.78° C | 61% | 1015.7 hPa | 0 mm | - | 845 W/m² | - |
| 1777570239 | 18.33° C | 61% | 1015.9 hPa | 0 mm | - | 830 W/m² | - |
| 1777569934 | 17.78° C | 62% | 1015.9 hPa | 0 mm | - | 832 W/m² | - |
| 1777569630 | 17.78° C | 63% | 1016.1 hPa | 0 mm | - | 799 W/m² | - |
| 1777569326 | 17.78° C | 59% | 1016.1 hPa | 0 mm | - | 765 W/m² | - |
| 1777569023 | 17.22° C | 61% | 1016 hPa | 0 mm | - | 754 W/m² | - |
| 1777568719 | 17.22° C | 62% | 1016.2 hPa | 0 mm | - | 739 W/m² | - |
| 1777568417 | 17.78° C | 61% | 1016.2 hPa | 0 mm | - | 732 W/m² | - |
| 1777568114 | 16.67° C | 64% | 1016.1 hPa | 0 mm | - | 702 W/m² | - |
| 1777567811 | 16.67° C | 65% | 1016.5 hPa | 0 mm | - | 702 W/m² | - |
| 1777567507 | 16.67° C | 63% | 1016.2 hPa | 0 mm | - | 689 W/m² | - |
| 1777567204 | 16.67° C | 63% | 1016.4 hPa | 0 mm | - | 629 W/m² | - |
| 1777566903 | 16.11° C | 65% | 1016.3 hPa | 0 mm | - | 547 W/m² | - |
| 1777566600 | 16.11° C | 67% | 1016.5 hPa | 0 mm | - | 558 W/m² | - |
| 1777566297 | 15.56° C | 66% | 1016.3 hPa | 0 mm | - | 568 W/m² | - |
| 1777565994 | 15.56° C | 67% | 1016.5 hPa | 0 mm | - | 561 W/m² | - |
| 1777565689 | 15.56° C | 67% | 1016.4 hPa | 0 mm | - | 540 W/m² | - |
| 1777565387 | 15.56° C | 68% | 1016.3 hPa | 0 mm | - | 527 W/m² | - |
| 1777565082 | 15.56° C | 69% | 1016.3 hPa | 0 mm | - | 505 W/m² | - |
| 1777564778 | 15.56° C | 67% | 1016.4 hPa | 0 mm | - | 442 W/m² | - |
| 1777564473 | 15.56° C | 68% | 1016.3 hPa | 0 mm | - | 431 W/m² | - |
* Rain latest hour (hover to see other rain measurements)
** Current wind speed in m/s (hover to see current wind gust speed)